{"data":{"norad_id":69398,"intl_designator":"2026-124S","name":"QIANFAN-181","alt_names":[],"object_type":"PAYLOAD","status":"ACTIVE","operator":null,"country":"PRC","launch_date":"2026-06-04","launch_site_code":"TAISC","launch_vehicle":null,"mission":null,"orbit_class":"UNKNOWN","rcs_meters":null,"size_class":null,"mass_kg":null,"dimensions":null,"purposes":[],"wikipedia_slug":null,"has_3d_model":false,"image_url":null,"decayed_at":null,"tle_current":{"epoch":"2026-09-20T04:39:21.879072Z","epoch_age_seconds":61028,"freshness":"FRESH","line1":"1 69398U 26124S   26263.19400323  .00000105  00000+0  14383-3 0  9998","line2":"2 69398  89.0072 352.0803 0002176 105.7165 254.4226 13.51024044 14852","mean_motion":13.51024044,"eccentricity":0.0002176,"inclination_deg":89.0072,"raan_deg":352.0803,"arg_perigee_deg":105.7165,"mean_anomaly_deg":254.4226,"bstar":0.00014383,"rev_number":1485,"period_min":106.5858158776,"perigee_km":1066.8728460534,"apogee_km":1070.1136195307,"semimajor_km":7446.6302327921,"source":"CELESTRAK","updated_at":"2026-09-20T09:00:24.863466Z"}}}